Regional Weather Roundup
Issued by NWS Northern Indiana

Home | Current Version | Previous Version | Text Only | Print | Product List | Glossary Off
Versions: 1 2 3 4 5 6 7 8 9 10 11 12 13 14 15 16 17 18 19 20 21 22 23 24 25 26 27 28 29 30 31 32 33 34 35 36 37 38 39 40 41 42 43 44 45 46 47 48 49 50

000
ASUS43 KIWX 251300
RWRIWX

KIWX WEATHER ROUNDUP
NATIONAL WEATHER SERVICE NORTHERN INDIANA
900 AM EDT MON MAY 25 2015

NOTE: "FAIR" INDICATES FEW OR NO CLOUDS BELOW 12,000 FEET WITH NO
SIGNIFICANT WEATHER AND/OR OBSTRUCTIONS TO VISIBILITY.

* THESE STATIONS ARE NOT UNDER NWS QUALITY CONTROL. THEY ALSO MAY NOT
  REPORT WEATHER SUCH AS PRECIPITATION OR FOG.

INZ001>027-251400-
NORTHERN INDIANA

CITY           SKY/WX    TMP DP  RH WIND       PRES   REMARKS
GARY*          PTSUNNY   72  68  88 S12       29.88S
SOUTH BEND     CLOUDY    74  65  73 S21       29.92F
ELKHART*       CLOUDY    72  63  73 S10       29.95S
GOSHEN         CLOUDY    72  63  73 S17       29.95F
ANGOLA*        PTSUNNY   72  63  73 S13       29.99S
FORT WAYNE     LGT RAIN  71  64  78 SW18G28   30.01F

$$
INZ028>050-251400-
CENTRAL INDIANA

CITY           SKY/WX    TMP DP  RH WIND       PRES   REMARKS
LAFAYETTE      CLOUDY    70  64  81 SW15G26   29.96S
KOKOMO*        CLOUDY    72  63  73 S20G28    30.00S
MUNCIE*        CLOUDY    71  63  75 S15G23    30.04R
INDIANAPOLIS   CLOUDY    70  64  81 S24G30    30.02R

$$
MIZ043>046-050>051-056>058-064>065-071>073-077>080-251400-
SOUTHWEST LOWER MICHIGAN

CITY           SKY/WX    TMP DP  RH WIND       PRES   REMARKS
BATTLE CREEK   CLOUDY    72  61  68 S17G23    29.96S
BENTON HARBOR  CLOUDY    72  64  76 S14G24    29.89F
COLDWATER*     CLOUDY    71  60  68 SW9       29.98S
HILLSDALE*     CLOUDY    70  60  71 S7        30.00F
HOLLAND        CLOUDY    73  63  70 S12       29.90F
GRAND RAPIDS   LGT RAIN  72  62  71 S10       29.92S
KALAMAZOO      CLOUDY    72  62  71 S12       29.94F
STURGIS*       DRIZZLE   72  63  73 S20       29.96S
THREE RIVERS*  PTSUNNY   72  62  71 S15G21    29.95S

$$
OHZ001>008-015>018-024>025-251400-
NORTHWEST OHIO

CITY           SKY/WX    TMP DP  RH WIND       PRES   REMARKS
DEFIANCE       LGT RAIN  70  62  76 S10       30.02S
FINDLAY        CLOUDY    74  58  57 S17G28    30.05F
TOLEDO EXPRESS CLOUDY    73  59  61 SW12G26   30.03R
TOLEDO METCALF CLOUDY    75  57  53 S16G23    30.04S
LIMA           CLOUDY    72  58  61 S17G31    30.06F

$$
AND FOR LAKE MICHIGAN COASTAL AND OPEN LAKE BUOY OBSERVATIONS

STATION/POSITION TEMP    WIND        PRES    VSBY  WAVE
                 AIR SEA DIR/SP/G                  HT/PER
                 (F)     (DEG/KT/KT) (MB)    (MI)  (FT/S)
CALUMET HARBOR    71     170/ 14/ 19   N/A
MICHIGAN CITY     72     160/ 14/ 20   N/A
BURNS HARBOR      72     190/ 20/ 29 1012.2S
SAINT JOSEPH      72     170/ 10/ 15 1012.5F
SOUTH LAKE BUOY   48 38  170/ 14/ 14 1011.5R         2/ 3
4 MI NW BRIDGMAN  65 54  220/ 16/ 17   N/A           3/ 3
MICHIGAN CITY     67 52  200/ 17/ 23   N/A           2/ 2

$$
&&


USA.gov is the U.S. government's official web portal to all federal, state and local government web resources and services.